Time,TemperatureF,DewpointF,PressureIn,WindDirection,WindDirectionDegrees,WindSpeedMPH,WindSpeedGustMPH,Humidity,HourlyPrecipIn,Conditions,Clouds,dailyrainin,SoftwareType,DateUTC
2013-06-22 00:03:00,64.7,62.3,29.96,NNE,13,0.0,0.0,92,0.00,,,0.00,Wunderground v.1.15,2013-06-22 05:03:00,
2013-06-22 00:08:00,64.5,62.4,29.95,NNE,21,0.0,0.0,93,0.00,,,0.00,Wunderground v.1.15,2013-06-22 05:08:00,
2013-06-22 00:14:00,64.4,62.3,29.95,NNE,22,0.0,0.0,93,0.00,,,0.00,Wunderground v.1.15,2013-06-22 05:14:00,
2013-06-22 00:20:00,64.3,62.2,29.94,ENE,67,0.0,0.0,93,0.00,,,0.00,Wunderground v.1.15,2013-06-22 05:20:00,
2013-06-22 00:25:00,64.2,62.1,29.93,ENE,67,0.0,0.0,93,0.00,,,0.00,Wunderground v.1.15,2013-06-22 05:25:00,
2013-06-22 00:31:00,64.0,61.9,29.91,NE,43,0.0,0.0,93,0.00,,,0.00,Wunderground v.1.15,2013-06-22 05:31:00,
2013-06-22 00:36:00,63.8,61.7,29.91,ENE,78,0.0,0.0,93,0.00,,,0.00,Wunderground v.1.15,2013-06-22 05:36:00,
2013-06-22 00:42:00,63.8,62.0,29.89,ENE,63,0.0,0.0,94,0.00,,,0.00,Wunderground v.1.15,2013-06-22 05:42:00,
2013-06-22 00:48:00,63.7,61.9,29.86,NNE,30,0.0,0.0,94,0.00,,,0.00,Wunderground v.1.15,2013-06-22 05:48:00,
2013-06-22 00:53:00,63.4,61.3,29.83,NE,55,0.0,0.0,93,0.00,,,0.00,Wunderground v.1.15,2013-06-22 05:53:00,
2013-06-22 00:59:00,63.2,61.1,29.82,NE,46,0.0,0.0,93,0.00,,,0.00,Wunderground v.1.15,2013-06-22 05:59:00,
2013-06-22 01:05:00,63.0,60.9,29.83,East,85,0.0,0.0,93,0.00,,,0.00,Wunderground v.1.15,2013-06-22 06:05:00,
2013-06-22 01:11:00,62.9,60.8,29.82,ENE,75,0.0,0.0,93,0.00,,,0.00,Wunderground v.1.15,2013-06-22 06:11:00,
2013-06-22 01:17:00,62.7,60.9,29.83,NE,47,0.0,0.0,94,0.00,,,0.00,Wunderground v.1.15,2013-06-22 06:17:00,
2013-06-22 01:22:00,62.6,60.8,29.82,ENE,67,0.0,0.0,94,0.00,,,0.00,Wunderground v.1.15,2013-06-22 06:22:00,
2013-06-22 01:28:00,62.5,60.7,29.82,East,98,0.0,0.0,94,0.00,,,0.00,Wunderground v.1.15,2013-06-22 06:28:00,
2013-06-22 01:34:00,62.4,60.7,29.84,NNE,27,0.0,0.0,94,0.00,,,0.00,Wunderground v.1.15,2013-06-22 06:34:00,
2013-06-22 01:40:00,62.3,60.6,29.84,East,84,0.0,0.0,94,0.00,,,0.00,Wunderground v.1.15,2013-06-22 06:40:00,
2013-06-22 01:46:00,62.3,60.6,29.85,ENE,67,0.0,0.0,94,0.00,,,0.00,Wunderground v.1.15,2013-06-22 06:46:00,
2013-06-22 01:52:00,62.2,60.5,29.86,SE,145,0.0,0.0,94,0.00,,,0.00,Wunderground v.1.15,2013-06-22 06:52:00,
2013-06-22 01:57:00,62.2,60.5,29.86,ESE,115,0.0,0.0,94,0.00,,,0.00,Wunderground v.1.15,2013-06-22 06:57:00,
2013-06-22 02:03:00,62.2,60.5,29.87,ESE,115,0.0,0.0,94,0.00,,,0.00,Wunderground v.1.15,2013-06-22 07:03:00,
2013-06-22 02:09:00,62.3,60.6,29.88,ESE,120,0.0,0.0,94,0.00,,,0.00,Wunderground v.1.15,2013-06-22 07:09:00,
2013-06-22 02:14:00,62.3,60.6,29.89,SE,136,0.0,0.0,94,0.00,,,0.00,Wunderground v.1.15,2013-06-22 07:14:00,
2013-06-22 02:20:00,62.4,60.7,29.90,SE,135,0.0,0.0,94,0.00,,,0.00,Wunderground v.1.15,2013-06-22 07:20:00,
2013-06-22 02:26:00,62.5,60.7,29.92,SSW,194,0.0,0.0,94,0.00,,,0.00,Wunderground v.1.15,2013-06-22 07:26:00,
2013-06-22 02:31:00,62.5,60.7,29.93,SE,142,0.0,0.0,94,0.00,,,0.00,Wunderground v.1.15,2013-06-22 07:31:00,
2013-06-22 02:37:00,62.6,60.8,29.93,South,169,0.0,0.0,94,0.00,,,0.00,Wunderground v.1.15,2013-06-22 07:37:00,
2013-06-22 02:43:00,62.7,60.9,29.93,SE,136,0.0,0.0,94,0.00,,,0.00,Wunderground v.1.15,2013-06-22 07:43:00,
2013-06-22 02:49:00,62.7,60.9,29.93,ESE,113,0.0,0.0,94,0.00,,,0.00,Wunderground v.1.15,2013-06-22 07:49:00,
2013-06-22 02:55:00,62.7,60.9,29.93,ESE,113,0.0,0.0,94,0.00,,,0.00,Wunderground v.1.15,2013-06-22 07:55:00,
2013-06-22 03:00:00,62.7,60.9,29.94,ESE,114,0.0,0.0,94,0.00,,,0.00,Wunderground v.1.15,2013-06-22 08:00:00,
2013-06-22 03:06:00,62.7,60.9,29.94,ESE,102,0.0,0.0,94,0.00,,,0.00,Wunderground v.1.15,2013-06-22 08:06:00,
2013-06-22 03:11:00,62.7,60.9,29.93,ESE,109,0.0,0.0,94,0.00,,,0.00,Wunderground v.1.15,2013-06-22 08:11:00,
2013-06-22 03:17:00,62.7,60.9,29.93,ESE,113,0.0,0.0,94,0.00,,,0.00,Wunderground v.1.15,2013-06-22 08:17:00,
2013-06-22 03:22:00,62.7,60.9,29.94,ESE,113,0.0,0.0,94,0.00,,,0.00,Wunderground v.1.15,2013-06-22 08:22:00,
2013-06-22 03:28:00,62.8,61.0,29.94,East,89,0.0,0.0,94,0.00,,,0.00,Wunderground v.1.15,2013-06-22 08:28:00,
2013-06-22 03:34:00,62.8,61.0,29.94,ENE,77,0.0,0.0,94,0.00,,,0.00,Wunderground v.1.15,2013-06-22 08:34:00,
2013-06-22 03:39:00,62.9,61.1,29.95,ESE,122,0.0,0.0,94,0.00,,,0.00,Wunderground v.1.15,2013-06-22 08:39:00,
2013-06-22 03:45:00,62.9,61.1,29.97,ESE,112,0.0,0.0,94,0.00,,,0.00,Wunderground v.1.15,2013-06-22 08:45:00,
2013-06-22 03:51:00,62.9,61.1,29.97,ESE,111,0.0,0.0,94,0.00,,,0.00,Wunderground v.1.15,2013-06-22 08:51:00,
2013-06-22 03:57:00,62.9,61.1,29.97,East,91,0.0,0.0,94,0.00,,,0.00,Wunderground v.1.15,2013-06-22 08:57:00,
2013-06-22 04:02:00,63.0,61.2,29.97,ENE,65,0.0,0.0,94,0.00,,,0.00,Wunderground v.1.15,2013-06-22 09:02:00,
2013-06-22 04:07:00,63.0,61.2,29.96,ENE,69,0.0,0.0,94,0.00,,,0.00,Wunderground v.1.15,2013-06-22 09:07:00,
2013-06-22 04:13:00,63.0,61.2,29.96,ENE,69,0.0,0.0,94,0.00,,,0.00,Wunderground v.1.15,2013-06-22 09:13:00,
2013-06-22 04:18:00,63.0,61.2,29.96,NE,51,0.0,0.0,94,0.00,,,0.00,Wunderground v.1.15,2013-06-22 09:18:00,
2013-06-22 04:24:00,63.0,61.2,29.96,NE,55,0.0,0.0,94,0.00,,,0.00,Wunderground v.1.15,2013-06-22 09:24:00,
2013-06-22 04:30:00,63.0,61.2,29.97,ENE,74,0.0,0.0,94,0.00,,,0.00,Wunderground v.1.15,2013-06-22 09:30:00,
2013-06-22 04:36:00,63.0,61.2,29.97,East,84,0.0,0.0,94,0.00,,,0.00,Wunderground v.1.15,2013-06-22 09:36:00,
2013-06-22 04:42:00,63.0,61.2,29.98,ENE,71,0.0,0.0,94,0.00,,,0.00,Wunderground v.1.15,2013-06-22 09:42:00,
2013-06-22 04:47:00,62.9,61.1,29.99,ENE,71,0.0,0.0,94,0.00,,,0.00,Wunderground v.1.15,2013-06-22 09:47:00,
2013-06-22 04:53:00,62.9,61.1,29.99,ESE,116,0.0,0.0,94,0.00,,,0.00,Wunderground v.1.15,2013-06-22 09:53:00,
2013-06-22 04:59:00,62.9,61.1,29.99,ESE,102,0.0,0.0,94,0.00,,,0.00,Wunderground v.1.15,2013-06-22 09:59:00,
2013-06-22 05:05:00,62.9,61.1,29.98,ENE,76,0.0,0.0,94,0.00,,,0.00,Wunderground v.1.15,2013-06-22 10:05:00,
2013-06-22 05:10:00,62.8,61.0,29.97,East,92,0.0,0.0,94,0.00,,,0.00,Wunderground v.1.15,2013-06-22 10:10:00,
2013-06-22 05:16:00,62.8,61.0,29.97,ESE,112,0.0,0.0,94,0.00,,,0.00,Wunderground v.1.15,2013-06-22 10:16:00,
2013-06-22 05:21:00,62.8,61.0,29.97,East,83,0.0,0.0,94,0.00,,,0.00,Wunderground v.1.15,2013-06-22 10:21:00,
2013-06-22 05:27:00,62.7,60.9,29.97,ENE,73,0.0,0.0,94,0.00,,,0.00,Wunderground v.1.15,2013-06-22 10:27:00,
2013-06-22 05:32:00,62.7,60.9,29.97,ENE,68,0.0,0.0,94,0.00,,,0.00,Wunderground v.1.15,2013-06-22 10:32:00,
2013-06-22 05:38:00,62.7,60.9,29.97,ENE,67,0.0,0.0,94,0.00,,,0.00,Wunderground v.1.15,2013-06-22 10:38:00,
2013-06-22 05:44:00,62.7,60.9,29.97,ENE,65,0.0,0.0,94,0.00,,,0.00,Wunderground v.1.15,2013-06-22 10:44:00,
2013-06-22 05:50:00,62.7,60.9,29.98,ENE,59,0.0,0.0,94,0.00,,,0.00,Wunderground v.1.15,2013-06-22 10:50:00,
2013-06-22 05:55:00,62.6,60.8,29.98,ENE,61,0.0,0.0,94,0.00,,,0.00,Wunderground v.1.15,2013-06-22 10:55:00,
2013-06-22 06:02:00,62.6,60.8,30.01,SSW,194,0.0,0.0,94,0.00,,,0.00,Wunderground v.1.15,2013-06-22 11:02:00,
2013-06-22 06:07:00,62.7,60.9,30.01,SSW,196,0.0,0.0,94,0.00,,,0.00,Wunderground v.1.15,2013-06-22 11:07:00,
2013-06-22 06:13:00,62.7,60.9,30.01,SSW,194,0.0,0.0,94,0.00,,,0.00,Wunderground v.1.15,2013-06-22 11:13:00,
2013-06-22 06:19:00,62.7,60.9,30.01,SSW,194,0.0,0.0,94,0.00,,,0.00,Wunderground v.1.15,2013-06-22 11:19:00,
2013-06-22 06:24:00,62.8,61.0,30.01,SSW,194,0.0,0.0,94,0.00,,,0.00,Wunderground v.1.15,2013-06-22 11:24:00,
2013-06-22 06:30:00,62.8,61.0,30.01,SSW,194,0.0,0.0,94,0.00,,,0.00,Wunderground v.1.15,2013-06-22 11:30:00,
2013-06-22 06:36:00,62.9,61.1,30.02,SSW,194,0.0,0.0,94,0.00,,,0.00,Wunderground v.1.15,2013-06-22 11:36:00,
2013-06-22 06:42:00,62.9,61.1,30.02,SSW,194,0.0,0.0,94,0.00,,,0.00,Wunderground v.1.15,2013-06-22 11:42:00,
2013-06-22 06:48:00,62.9,61.1,30.02,SSW,194,0.0,0.0,94,0.00,,,0.00,Wunderground v.1.15,2013-06-22 11:48:00,
2013-06-22 06:53:00,62.9,61.1,30.01,SSW,194,0.0,0.0,94,0.00,,,0.00,Wunderground v.1.15,2013-06-22 11:53:00,
2013-06-22 06:58:00,62.9,61.1,30.00,SSE,166,0.0,0.0,94,0.00,,,0.00,Wunderground v.1.15,2013-06-22 11:58:00,
2013-06-22 07:04:00,62.9,61.1,29.99,ENE,69,0.0,0.0,94,0.00,,,0.00,Wunderground v.1.15,2013-06-22 12:04:00,
2013-06-22 07:10:00,62.8,61.0,29.98,NE,56,0.0,0.0,94,0.00,,,0.00,Wunderground v.1.15,2013-06-22 12:10:00,
2013-06-22 07:15:00,62.7,60.9,29.99,ENE,67,0.0,0.0,94,0.00,,,0.00,Wunderground v.1.15,2013-06-22 12:15:00,
2013-06-22 07:21:00,62.7,60.9,29.99,NE,55,0.0,0.0,94,0.00,,,0.00,Wunderground v.1.15,2013-06-22 12:21:00,
2013-06-22 07:26:00,62.7,60.9,29.99,ENE,59,0.0,0.0,94,0.00,,,0.01,Wunderground v.1.15,2013-06-22 12:26:00,
2013-06-22 07:32:00,62.7,60.9,29.99,NE,55,0.0,0.0,94,0.00,,,0.01,Wunderground v.1.15,2013-06-22 12:32:00,
2013-06-22 07:38:00,62.6,61.1,29.99,ENE,69,0.0,0.0,95,0.04,,,0.02,Wunderground v.1.15,2013-06-22 12:38:00,
2013-06-22 07:43:00,62.6,61.1,29.98,East,94,0.0,0.0,95,0.04,,,0.02,Wunderground v.1.15,2013-06-22 12:43:00,
2013-06-22 07:49:00,62.6,61.1,29.97,East,85,0.0,0.0,95,0.08,,,0.03,Wunderground v.1.15,2013-06-22 12:49:00,
2013-06-22 07:55:00,62.5,61.0,29.95,East,88,0.0,0.0,95,0.06,,,0.03,Wunderground v.1.15,2013-06-22 12:55:00,
2013-06-22 08:00:00,62.5,60.7,29.94,East,86,0.0,0.0,94,0.05,,,0.04,Wunderground v.1.15,2013-06-22 13:00:00,
2013-06-22 08:06:00,62.5,60.7,29.92,ESE,112,0.0,0.0,94,0.05,,,0.04,Wunderground v.1.15,2013-06-22 13:06:00,
2013-06-22 08:12:00,62.5,60.7,29.91,ESE,106,0.0,0.0,94,0.05,,,0.05,Wunderground v.1.15,2013-06-22 13:12:00,
2013-06-22 08:18:00,62.5,60.7,29.92,ESE,105,0.0,0.0,94,0.05,,,0.05,Wunderground v.1.15,2013-06-22 13:18:00,
2013-06-22 08:23:00,62.6,60.8,29.93,ESE,113,0.0,0.0,94,0.04,,,0.05,Wunderground v.1.15,2013-06-22 13:23:00,
2013-06-22 08:29:00,62.6,60.8,29.94,SE,126,0.0,0.0,94,0.00,,,0.05,Wunderground v.1.15,2013-06-22 13:29:00,
2013-06-22 08:35:00,62.7,60.9,29.96,ESE,113,0.0,0.0,94,0.00,,,0.05,Wunderground v.1.15,2013-06-22 13:35:00,
2013-06-22 08:41:00,62.8,61.0,29.99,WSW,255,0.0,0.0,94,0.00,,,0.05,Wunderground v.1.15,2013-06-22 13:41:00,
2013-06-22 08:47:00,62.9,61.1,29.97,ESE,105,0.0,0.0,94,0.00,,,0.05,Wunderground v.1.15,2013-06-22 13:47:00,
2013-06-22 08:52:00,62.8,61.0,29.97,ESE,105,0.0,0.0,94,0.00,,,0.05,Wunderground v.1.15,2013-06-22 13:52:00,
2013-06-22 08:58:00,62.8,61.0,29.97,SE,132,0.0,0.0,94,0.00,,,0.05,Wunderground v.1.15,2013-06-22 13:58:00,
2013-06-22 09:04:00,62.8,61.0,29.97,SE,124,0.0,0.0,94,0.00,,,0.05,Wunderground v.1.15,2013-06-22 14:04:00,
2013-06-22 09:10:00,62.8,61.0,29.98,ESE,103,0.0,0.0,94,0.00,,,0.05,Wunderground v.1.15,2013-06-22 14:10:00,
2013-06-22 09:15:00,62.8,61.0,29.98,ESE,108,0.0,0.0,94,0.00,,,0.05,Wunderground v.1.15,2013-06-22 14:15:00,
2013-06-22 09:21:00,62.8,61.3,29.90,East,92,0.0,0.0,95,0.00,,,0.06,Wunderground v.1.15,2013-06-22 14:21:00,
2013-06-22 09:27:00,62.7,60.9,29.90,East,95,0.0,0.0,94,0.00,,,0.06,Wunderground v.1.15,2013-06-22 14:27:00,
2013-06-22 09:33:00,62.7,61.2,29.91,SE,128,0.0,0.0,95,0.00,,,0.06,Wunderground v.1.15,2013-06-22 14:33:00,
2013-06-22 09:39:00,62.8,61.3,29.93,SE,127,0.0,0.0,95,0.00,,,0.06,Wunderground v.1.15,2013-06-22 14:39:00,
2013-06-22 09:45:00,62.9,61.4,29.93,ESE,123,0.0,0.0,95,0.00,,,0.06,Wunderground v.1.15,2013-06-22 14:45:00,
2013-06-22 09:50:00,63.0,61.5,29.94,SE,125,0.0,0.0,95,0.00,,,0.06,Wunderground v.1.15,2013-06-22 14:50:00,
2013-06-22 09:56:00,63.2,61.4,29.93,SE,139,0.0,0.0,94,0.00,,,0.06,Wunderground v.1.15,2013-06-22 14:56:00,
2013-06-22 10:01:00,63.3,61.5,29.92,ESE,120,0.0,0.0,94,0.00,,,0.06,Wunderground v.1.15,2013-06-22 15:01:00,
2013-06-22 10:07:00,63.4,61.6,29.91,ESE,120,0.0,0.0,94,0.00,,,0.06,Wunderground v.1.15,2013-06-22 15:07:00,
2013-06-22 10:12:00,63.6,62.1,29.91,ESE,123,0.0,0.0,95,0.00,,,0.06,Wunderground v.1.15,2013-06-22 15:12:00,
2013-06-22 10:18:00,63.8,62.3,29.91,SE,128,0.0,0.0,95,0.00,,,0.06,Wunderground v.1.15,2013-06-22 15:18:00,
2013-06-22 10:24:00,64.0,62.5,29.92,ESE,115,0.0,0.0,95,0.00,,,0.06,Wunderground v.1.15,2013-06-22 15:24:00,
2013-06-22 10:30:00,64.2,62.7,29.92,SE,138,0.0,0.0,95,0.00,,,0.06,Wunderground v.1.15,2013-06-22 15:30:00,
2013-06-22 10:35:00,64.3,62.8,29.93,East,94,0.0,0.0,95,0.00,,,0.06,Wunderground v.1.15,2013-06-22 15:35:00,
2013-06-22 10:41:00,64.5,62.7,29.92,SE,142,0.0,0.0,94,0.00,,,0.06,Wunderground v.1.15,2013-06-22 15:41:00,
2013-06-22 10:47:00,64.6,62.8,29.92,East,91,0.0,0.0,94,0.00,,,0.06,Wunderground v.1.15,2013-06-22 15:47:00,
2013-06-22 10:53:00,64.8,63.0,29.92,SE,124,0.0,0.0,94,0.00,,,0.06,Wunderground v.1.15,2013-06-22 15:53:00,
2013-06-22 10:58:00,64.9,63.1,29.92,ESE,111,0.0,0.0,94,0.00,,,0.06,Wunderground v.1.15,2013-06-22 15:58:00,
2013-06-22 11:03:00,65.1,63.3,29.92,ESE,111,0.0,0.0,94,0.00,,,0.06,Wunderground v.1.15,2013-06-22 16:03:00,
2013-06-22 11:09:00,65.3,63.5,29.92,SE,134,0.0,0.0,94,0.00,,,0.06,Wunderground v.1.15,2013-06-22 16:09:00,
2013-06-22 11:15:00,65.4,63.6,29.93,SE,129,0.0,0.0,94,0.00,,,0.06,Wunderground v.1.15,2013-06-22 16:15:00,
2013-06-22 11:20:00,65.6,63.8,29.93,SE,129,0.0,0.0,94,0.00,,,0.06,Wunderground v.1.15,2013-06-22 16:20:00,
2013-06-22 11:26:00,65.9,64.1,29.93,East,97,0.0,0.0,94,0.00,,,0.06,Wunderground v.1.15,2013-06-22 16:26:00,
2013-06-22 11:32:00,66.1,64.0,29.93,ESE,115,0.0,0.0,93,0.00,,,0.06,Wunderground v.1.15,2013-06-22 16:32:00,
2013-06-22 11:38:00,66.5,64.4,29.93,ESE,115,0.0,0.0,93,0.00,,,0.06,Wunderground v.1.15,2013-06-22 16:38:00,
2013-06-22 11:43:00,66.6,64.2,29.92,ESE,115,0.0,0.0,92,0.00,,,0.06,Wunderground v.1.15,2013-06-22 16:43:00,
2013-06-22 11:49:00,67.0,64.9,29.93,ENE,61,0.0,0.0,93,0.00,,,0.06,Wunderground v.1.15,2013-06-22 16:49:00,
2013-06-22 11:55:00,67.5,65.4,29.92,ENE,63,0.0,0.0,93,0.00,,,0.06,Wunderground v.1.15,2013-06-22 16:55:00,
2013-06-22 12:00:00,67.8,65.4,29.92,ENE,63,0.0,0.0,92,0.00,,,0.06,Wunderground v.1.15,2013-06-22 17:00:00,
2013-06-22 12:06:00,68.2,65.5,29.93,ENE,63,0.0,0.0,91,0.00,,,0.06,Wunderground v.1.15,2013-06-22 17:06:00,
2013-06-22 12:12:00,68.6,65.5,29.93,ENE,63,0.0,0.0,90,0.00,,,0.06,Wunderground v.1.15,2013-06-22 17:12:00,
2013-06-22 12:17:00,68.9,65.5,29.93,ENE,64,0.0,0.0,89,0.00,,,0.06,Wunderground v.1.15,2013-06-22 17:17:00,
2013-06-22 12:23:00,69.5,66.4,29.93,NNE,32,0.0,0.0,90,0.00,,,0.06,Wunderground v.1.15,2013-06-22 17:23:00,
2013-06-22 12:29:00,69.7,65.7,29.93,NNW,341,0.0,0.0,87,0.00,,,0.06,Wunderground v.1.15,2013-06-22 17:29:00,
2013-06-22 12:35:00,70.0,66.6,29.93,NE,54,0.0,0.0,89,0.00,,,0.06,Wunderground v.1.15,2013-06-22 17:35:00,
2013-06-22 12:40:00,70.5,66.4,29.93,NNE,22,0.0,0.0,87,0.00,,,0.06,Wunderground v.1.15,2013-06-22 17:40:00,
2013-06-22 12:46:00,70.7,66.0,29.93,NE,49,0.0,0.0,85,0.00,,,0.06,Wunderground v.1.15,2013-06-22 17:46:00,
2013-06-22 12:51:00,70.8,66.1,29.93,NE,40,0.0,0.0,85,0.00,,,0.06,Wunderground v.1.15,2013-06-22 17:51:00,
2013-06-22 12:57:00,71.1,66.4,29.93,ENE,61,0.0,0.0,85,0.00,,,0.06,Wunderground v.1.15,2013-06-22 17:57:00,
2013-06-22 13:03:00,71.6,66.5,29.93,NNW,333,0.0,0.0,84,0.00,,,0.06,Wunderground v.1.15,2013-06-22 18:03:00,
2013-06-22 13:09:00,71.7,66.6,29.93,NW,304,0.0,0.0,84,0.00,,,0.06,Wunderground v.1.15,2013-06-22 18:09:00,
2013-06-22 13:14:00,72.1,67.0,29.93,NE,43,0.0,0.0,84,0.00,,,0.06,Wunderground v.1.15,2013-06-22 18:14:00,
2013-06-22 13:20:00,72.3,67.5,29.93,NE,43,0.0,0.0,85,0.00,,,0.06,Wunderground v.1.15,2013-06-22 18:20:00,
2013-06-22 13:26:00,72.3,67.2,29.93,NE,51,0.0,0.0,84,0.00,,,0.06,Wunderground v.1.15,2013-06-22 18:26:00,
2013-06-22 13:31:00,72.3,66.8,29.93,NE,42,0.0,0.0,83,0.00,,,0.06,Wunderground v.1.15,2013-06-22 18:31:00,
2013-06-22 13:37:00,72.3,67.2,29.93,NNE,25,0.0,0.0,84,0.00,,,0.06,Wunderground v.1.15,2013-06-22 18:37:00,
2013-06-22 13:43:00,72.7,67.2,29.93,NE,39,0.0,0.0,83,0.00,,,0.06,Wunderground v.1.15,2013-06-22 18:43:00,
2013-06-22 13:49:00,72.8,67.0,29.93,ENE,69,0.0,0.0,82,0.00,,,0.06,Wunderground v.1.15,2013-06-22 18:49:00,
2013-06-22 13:54:00,73.1,67.3,29.93,ESE,103,0.0,0.0,82,0.00,,,0.06,Wunderground v.1.15,2013-06-22 18:54:00,
2013-06-22 14:00:00,73.4,66.9,29.93,ESE,107,0.0,0.0,80,0.00,,,0.06,Wunderground v.1.15,2013-06-22 19:00:00,
2013-06-22 14:05:00,73.7,67.5,29.93,SE,145,0.0,0.0,81,0.00,,,0.06,Wunderground v.1.15,2013-06-22 19:05:00,
2013-06-22 14:11:00,74.0,68.2,29.92,ESE,123,0.0,0.0,82,0.00,,,0.06,Wunderground v.1.15,2013-06-22 19:11:00,
2013-06-22 14:17:00,74.4,68.2,29.92,ENE,76,0.0,0.0,81,0.00,,,0.06,Wunderground v.1.15,2013-06-22 19:17:00,
2013-06-22 14:23:00,74.9,68.7,29.91,East,91,0.0,0.0,81,0.00,,,0.06,Wunderground v.1.15,2013-06-22 19:23:00,
2013-06-22 14:29:00,74.8,67.1,29.92,ESE,104,0.0,0.0,77,0.00,,,0.06,Wunderground v.1.15,2013-06-22 19:29:00,
2013-06-22 14:34:00,75.3,68.3,29.92,East,86,0.0,0.0,79,0.00,,,0.06,Wunderground v.1.15,2013-06-22 19:34:00,
2013-06-22 14:40:00,75.4,68.1,29.92,East,88,0.0,0.0,78,0.00,,,0.06,Wunderground v.1.15,2013-06-22 19:40:00,
2013-06-22 14:46:00,75.5,68.5,29.92,East,94,0.0,0.0,79,0.00,,,0.06,Wunderground v.1.15,2013-06-22 19:46:00,
2013-06-22 14:52:00,75.4,67.3,29.92,ESE,105,0.0,0.0,76,0.00,,,0.06,Wunderground v.1.15,2013-06-22 19:52:00,
2013-06-22 14:58:00,74.9,67.6,29.92,East,90,0.0,0.0,78,0.00,,,0.06,Wunderground v.1.15,2013-06-22 19:58:00,
2013-06-22 15:04:00,74.8,68.2,29.93,ESE,105,0.0,0.0,80,0.00,,,0.06,Wunderground v.1.15,2013-06-22 20:04:00,
2013-06-22 15:10:00,74.7,67.8,29.93,East,96,0.0,0.0,79,0.00,,,0.06,Wunderground v.1.15,2013-06-22 20:10:00,
2013-06-22 15:16:00,74.5,67.9,29.92,East,101,0.0,0.0,80,0.00,,,0.06,Wunderground v.1.15,2013-06-22 20:16:00,
2013-06-22 15:22:00,74.4,68.2,29.92,East,95,0.0,0.0,81,0.00,,,0.06,Wunderground v.1.15,2013-06-22 20:22:00,
2013-06-22 15:28:00,74.2,68.0,29.92,East,83,0.0,0.0,81,0.00,,,0.06,Wunderground v.1.15,2013-06-22 20:28:00,
2013-06-22 15:33:00,74.1,67.5,29.92,ESE,109,0.0,0.0,80,0.00,,,0.06,Wunderground v.1.15,2013-06-22 20:33:00,
2013-06-22 15:39:00,74.1,67.5,29.92,East,89,0.0,0.0,80,0.00,,,0.06,Wunderground v.1.15,2013-06-22 20:39:00,
2013-06-22 15:44:00,74.2,68.0,29.92,East,96,0.0,0.0,81,0.00,,,0.06,Wunderground v.1.15,2013-06-22 20:44:00,
2013-06-22 15:50:00,74.4,68.2,29.91,ESE,102,0.0,0.0,81,0.00,,,0.06,Wunderground v.1.15,2013-06-22 20:50:00,
2013-06-22 15:56:00,74.5,68.3,29.91,ESE,103,0.0,0.0,81,0.00,,,0.06,Wunderground v.1.15,2013-06-22 20:56:00,
2013-06-22 16:01:00,74.4,68.5,29.91,ESE,115,0.0,0.0,82,0.00,,,0.06,Wunderground v.1.15,2013-06-22 21:01:00,
2013-06-22 16:06:00,74.3,68.1,29.91,ENE,78,0.0,0.0,81,0.00,,,0.06,Wunderground v.1.15,2013-06-22 21:06:00,
2013-06-22 16:12:00,74.4,68.5,29.91,East,95,0.0,0.0,82,0.00,,,0.06,Wunderground v.1.15,2013-06-22 21:12:00,
2013-06-22 16:18:00,74.8,69.3,29.90,East,88,0.0,0.0,83,0.00,,,0.06,Wunderground v.1.15,2013-06-22 21:18:00,
2013-06-22 16:24:00,75.1,68.9,29.90,East,84,0.0,0.0,81,0.00,,,0.06,Wunderground v.1.15,2013-06-22 21:24:00,
2013-06-22 16:29:00,75.0,68.8,29.90,East,80,0.0,0.0,81,0.00,,,0.06,Wunderground v.1.15,2013-06-22 21:29:00,
2013-06-22 16:35:00,74.8,68.9,29.90,East,89,0.0,0.0,82,0.00,,,0.06,Wunderground v.1.15,2013-06-22 21:35:00,
2013-06-22 16:41:00,74.6,69.1,29.90,ESE,108,0.0,0.0,83,0.00,,,0.06,Wunderground v.1.15,2013-06-22 21:41:00,
2013-06-22 16:46:00,74.4,68.5,29.90,East,80,0.0,0.0,82,0.00,,,0.06,Wunderground v.1.15,2013-06-22 21:46:00,
2013-06-22 16:52:00,74.2,68.3,29.90,SE,136,0.0,0.0,82,0.00,,,0.06,Wunderground v.1.15,2013-06-22 21:52:00,
2013-06-22 16:58:00,74.0,68.2,29.90,ESE,102,0.0,0.0,82,0.00,,,0.06,Wunderground v.1.15,2013-06-22 21:58:00,
2013-06-22 17:04:00,73.8,68.0,29.91,East,98,0.0,0.0,82,0.00,,,0.06,Wunderground v.1.15,2013-06-22 22:04:00,
2013-06-22 17:09:00,73.8,68.0,29.91,ESE,112,0.0,0.0,82,0.00,,,0.06,Wunderground v.1.15,2013-06-22 22:09:00,
2013-06-22 17:15:00,73.7,68.2,29.90,ESE,109,0.0,0.0,83,0.00,,,0.06,Wunderground v.1.15,2013-06-22 22:15:00,
2013-06-22 17:21:00,73.7,68.2,29.90,ESE,107,0.0,0.0,83,0.00,,,0.06,Wunderground v.1.15,2013-06-22 22:21:00,
2013-06-22 17:27:00,73.7,68.2,29.90,ESE,115,0.0,0.0,83,0.00,,,0.06,Wunderground v.1.15,2013-06-22 22:27:00,
2013-06-22 17:33:00,73.6,68.1,29.90,ESE,109,0.0,0.0,83,0.00,,,0.06,Wunderground v.1.15,2013-06-22 22:33:00,
2013-06-22 17:38:00,73.5,68.0,29.90,ESE,107,0.0,0.0,83,0.00,,,0.06,Wunderground v.1.15,2013-06-22 22:38:00,
2013-06-22 17:44:00,73.3,67.8,29.90,SE,130,0.0,0.0,83,0.00,,,0.06,Wunderground v.1.15,2013-06-22 22:44:00,
2013-06-22 17:50:00,73.2,68.1,29.90,ESE,115,0.0,0.0,84,0.00,,,0.06,Wunderground v.1.15,2013-06-22 22:50:00,
2013-06-22 17:55:00,73.1,68.0,29.90,SE,126,0.0,0.0,84,0.00,,,0.06,Wunderground v.1.15,2013-06-22 22:55:00,
2013-06-22 18:02:00,73.1,68.0,29.90,ESE,115,0.0,0.0,84,0.00,,,0.06,Wunderground v.1.15,2013-06-22 23:02:00,
2013-06-22 18:07:00,73.1,68.0,29.90,East,99,0.0,0.0,84,0.00,,,0.06,Wunderground v.1.15,2013-06-22 23:07:00,
2013-06-22 18:13:00,73.1,68.0,29.90,ESE,122,0.0,0.0,84,0.00,,,0.06,Wunderground v.1.15,2013-06-22 23:13:00,
2013-06-22 18:18:00,73.0,67.9,29.90,ESE,108,0.0,0.0,84,0.00,,,0.06,Wunderground v.1.15,2013-06-22 23:18:00,
2013-06-22 18:24:00,72.8,67.7,29.90,ENE,63,0.0,0.0,84,0.00,,,0.06,Wunderground v.1.15,2013-06-22 23:24:00,
2013-06-22 18:30:00,72.9,67.8,29.90,ESE,117,0.0,0.0,84,0.00,,,0.06,Wunderground v.1.15,2013-06-22 23:30:00,
2013-06-22 18:35:00,72.8,67.3,29.89,ESE,111,0.0,0.0,83,0.00,,,0.06,Wunderground v.1.15,2013-06-22 23:35:00,
2013-06-22 18:40:00,72.9,67.4,29.89,ESE,116,0.0,0.0,83,0.00,,,0.06,Wunderground v.1.15,2013-06-22 23:40:00,
2013-06-22 18:46:00,72.7,67.6,29.89,SE,142,0.0,0.0,84,0.00,,,0.06,Wunderground v.1.15,2013-06-22 23:46:00,
2013-06-22 18:51:00,72.6,67.5,29.88,ESE,118,0.0,0.0,84,0.00,,,0.06,Wunderground v.1.15,2013-06-22 23:51:00,
2013-06-22 18:57:00,72.2,67.1,29.88,ESE,117,0.0,0.0,84,0.00,,,0.06,Wunderground v.1.15,2013-06-22 23:57:00,
2013-06-22 19:03:00,71.9,67.1,29.88,ESE,111,0.0,0.0,85,0.00,,,0.06,Wunderground v.1.15,2013-06-23 00:03:00,
2013-06-22 19:09:00,71.8,67.0,29.89,East,90,0.0,0.0,85,0.00,,,0.06,Wunderground v.1.15,2013-06-23 00:09:00,
2013-06-22 19:15:00,71.3,66.6,29.89,SE,132,0.0,0.0,85,0.00,,,0.06,Wunderground v.1.15,2013-06-23 00:15:00,
2013-06-22 19:20:00,71.0,66.6,29.90,ESE,122,0.0,0.0,86,0.00,,,0.06,Wunderground v.1.15,2013-06-23 00:20:00,
2013-06-22 19:26:00,70.5,66.1,29.90,East,90,0.0,0.0,86,0.00,,,0.06,Wunderground v.1.15,2013-06-23 00:26:00,
2013-06-22 19:32:00,70.1,65.7,29.91,ESE,105,0.0,0.0,86,0.00,,,0.06,Wunderground v.1.15,2013-06-23 00:32:00,
2013-06-22 19:38:00,69.6,65.6,29.90,East,97,0.0,0.0,87,0.00,,,0.06,Wunderground v.1.15,2013-06-23 00:38:00,
2013-06-22 19:43:00,69.4,65.4,29.90,ESE,112,0.0,0.0,87,0.00,,,0.06,Wunderground v.1.15,2013-06-23 00:43:00,
2013-06-22 19:49:00,69.2,65.2,29.90,ESE,117,0.0,0.0,87,0.00,,,0.06,Wunderground v.1.15,2013-06-23 00:49:00,
2013-06-22 19:55:00,69.0,65.0,29.90,SE,138,0.0,0.0,87,0.00,,,0.06,Wunderground v.1.15,2013-06-23 00:55:00,
2013-06-22 20:02:00,68.9,65.2,29.90,East,96,0.0,0.0,88,0.00,,,0.06,Wunderground v.1.15,2013-06-23 01:02:00,
2013-06-22 20:07:00,68.8,65.1,29.90,ESE,118,0.0,0.0,88,0.00,,,0.06,Wunderground v.1.15,2013-06-23 01:07:00,
2013-06-22 20:12:00,68.7,65.0,29.90,East,86,0.0,0.0,88,0.00,,,0.06,Wunderground v.1.15,2013-06-23 01:12:00,
2013-06-22 20:18:00,68.5,64.8,29.89,ESE,111,0.0,0.0,88,0.00,,,0.06,Wunderground v.1.15,2013-06-23 01:18:00,
2013-06-22 20:24:00,68.2,64.5,29.89,East,88,0.0,0.0,88,0.00,,,0.06,Wunderground v.1.15,2013-06-23 01:24:00,
2013-06-22 20:30:00,67.9,64.2,29.88,East,101,0.0,0.0,88,0.00,,,0.06,Wunderground v.1.15,2013-06-23 01:30:00,
2013-06-22 20:36:00,67.6,64.2,29.88,East,94,0.0,0.0,89,0.00,,,0.06,Wunderground v.1.15,2013-06-23 01:36:00,
2013-06-22 20:41:00,67.5,64.1,29.89,SE,125,0.0,0.0,89,0.00,,,0.06,Wunderground v.1.15,2013-06-23 01:41:00,
2013-06-22 20:47:00,67.3,63.9,29.89,ESE,119,0.0,0.0,89,0.00,,,0.06,Wunderground v.1.15,2013-06-23 01:47:00,
2013-06-22 20:53:00,67.2,63.8,29.89,ESE,109,0.0,0.0,89,0.00,,,0.06,Wunderground v.1.15,2013-06-23 01:53:00,
2013-06-22 20:59:00,67.0,64.0,29.88,East,90,0.0,0.0,90,0.00,,,0.06,Wunderground v.1.15,2013-06-23 01:59:00,
2013-06-22 21:05:00,66.8,63.8,29.88,ENE,67,0.0,0.0,90,0.00,,,0.06,Wunderground v.1.15,2013-06-23 02:05:00,
2013-06-22 21:10:00,66.7,63.7,29.89,ESE,107,0.0,0.0,90,0.00,,,0.06,Wunderground v.1.15,2013-06-23 02:10:00,
2013-06-22 21:16:00,66.6,63.9,29.90,ENE,78,0.0,0.0,91,0.00,,,0.06,Wunderground v.1.15,2013-06-23 02:16:00,
2013-06-22 21:22:00,66.5,63.8,29.90,East,98,0.0,0.0,91,0.00,,,0.06,Wunderground v.1.15,2013-06-23 02:22:00,
2013-06-22 21:27:00,66.4,63.7,29.89,East,83,0.0,0.0,91,0.00,,,0.06,Wunderground v.1.15,2013-06-23 02:27:00,
2013-06-22 21:33:00,66.3,63.6,29.89,ENE,63,0.0,0.0,91,0.00,,,0.06,Wunderground v.1.15,2013-06-23 02:33:00,
2013-06-22 21:39:00,66.3,63.6,29.90,East,98,0.0,0.0,91,0.00,,,0.06,Wunderground v.1.15,2013-06-23 02:39:00,
2013-06-22 21:45:00,66.2,63.5,29.89,ESE,115,0.0,0.0,91,0.00,,,0.06,Wunderground v.1.15,2013-06-23 02:45:00,
2013-06-22 21:50:00,66.1,63.7,29.90,ESE,121,0.0,0.0,92,0.00,,,0.06,Wunderground v.1.15,2013-06-23 02:50:00,
2013-06-22 21:56:00,66.1,63.7,29.90,ESE,119,0.0,0.0,92,0.00,,,0.06,Wunderground v.1.15,2013-06-23 02:56:00,
2013-06-22 22:02:00,66.1,63.7,29.90,ESE,107,0.0,0.0,92,0.00,,,0.07,Wunderground v.1.15,2013-06-23 03:02:00,
2013-06-22 22:07:00,66.2,63.8,29.90,ESE,104,0.0,0.0,92,0.00,,,0.07,Wunderground v.1.15,2013-06-23 03:07:00,
2013-06-22 22:13:00,66.1,64.0,29.89,ESE,102,0.0,0.0,93,0.00,,,0.07,Wunderground v.1.15,2013-06-23 03:13:00,
2013-06-22 22:18:00,66.1,64.0,29.89,East,88,0.0,0.0,93,0.00,,,0.07,Wunderground v.1.15,2013-06-23 03:18:00,
2013-06-22 22:24:00,66.0,63.9,29.88,East,83,0.0,0.0,93,0.00,,,0.08,Wunderground v.1.15,2013-06-23 03:24:00,
2013-06-22 22:30:00,65.9,64.1,29.87,East,81,0.0,0.0,94,0.08,,,0.09,Wunderground v.1.15,2013-06-23 03:30:00,
2013-06-22 22:36:00,65.9,64.1,29.86,East,92,0.0,0.0,94,0.09,,,0.10,Wunderground v.1.15,2013-06-23 03:36:00,
2013-06-22 22:42:00,66.0,64.2,29.87,ESE,115,0.0,0.0,94,0.14,,,0.11,Wunderground v.1.15,2013-06-23 03:42:00,
2013-06-22 22:47:00,66.0,64.2,29.87,East,98,0.0,0.0,94,0.09,,,0.12,Wunderground v.1.15,2013-06-23 03:47:00,
2013-06-22 22:52:00,66.0,64.2,29.86,East,95,0.0,0.0,94,0.13,,,0.13,Wunderground v.1.15,2013-06-23 03:52:00,
2013-06-22 22:58:00,66.0,64.2,29.83,ESE,118,0.0,0.0,94,0.07,,,0.14,Wunderground v.1.15,2013-06-23 03:58:00,
2013-06-22 23:01:00,66.0,64.2,29.83,SE,136,0.0,0.0,94,0.07,,,0.14,Wunderground v.1.15,2013-06-23 04:01:00,
2013-06-22 23:02:00,66.0,64.2,29.83,ESE,105,0.0,0.0,94,0.07,,,0.14,Wunderground v.1.15,2013-06-23 04:02:00,
2013-06-22 23:07:00,66.1,64.6,29.83,ESE,111,0.0,0.0,95,0.06,,,0.14,Wunderground v.1.15,2013-06-23 04:07:00,
2013-06-22 23:12:00,66.2,64.7,29.83,ENE,70,0.0,0.0,95,0.04,,,0.14,Wunderground v.1.15,2013-06-23 04:12:00,
2013-06-22 23:18:00,66.4,64.9,29.85,WSW,254,0.0,0.0,95,0.00,,,0.14,Wunderground v.1.15,2013-06-23 04:18:00,
2013-06-22 23:23:00,66.6,65.1,29.85,West,277,0.0,0.0,95,0.00,,,0.14,Wunderground v.1.15,2013-06-23 04:23:00,
2013-06-22 23:29:00,66.7,65.2,29.84,SE,130,0.0,0.0,95,0.00,,,0.14,Wunderground v.1.15,2013-06-23 04:29:00,
2013-06-22 23:35:00,66.8,65.3,29.85,SSE,167,0.0,0.0,95,0.00,,,0.14,Wunderground v.1.15,2013-06-23 04:35:00,
2013-06-22 23:40:00,66.8,65.3,29.85,SE,125,0.0,0.0,95,0.00,,,0.14,Wunderground v.1.15,2013-06-23 04:40:00,
2013-06-22 23:46:00,66.9,65.4,29.84,NE,39,0.0,0.0,95,0.00,,,0.14,Wunderground v.1.15,2013-06-23 04:46:00,
2013-06-22 23:51:00,66.8,65.3,29.84,ESE,115,0.0,0.0,95,0.00,,,0.14,Wunderground v.1.15,2013-06-23 04:51:00,
2013-06-22 23:57:00,66.8,65.3,29.83,East,94,0.0,0.0,95,0.00,,,0.14,Wunderground v.1.15,2013-06-23 04:57:00,